Date String (YYYY-MM-DD hh:mm:ss) UTC,Instrument flags,Ambient pressure (hPa),Sample flow (lpm),Bypass flow (lpm),Sample temperature (°C),Ambient temperature (°C),ASC tube jacket temperature (°C),LED temperature (°C),Box temperature (°C),Sample RH (%),Span deviation,Mass concentration (μg/m³),Mass concentration (μg/m³),Mass concentration (μg/m³)
DateTimeUTC,F1_M11,P_M11,Q1_M11,Q2_M11,T1_M11,T2_M11,T3_M11,T4_M11,T5_M11,U1_M11,ZSPAN_M11,X0_M11,X2_M11,X1_M11
2022-09-05 12:00:00,,0826.8,5.00,0.00,30.3,29.1,00.0,39.1,32.1,15.0,0000.0,0013.40,0007.59,0006.77
2022-09-05 12:01:00,,0826.8,5.00,0.00,30.3,29.2,00.0,39.1,32.1,15.1,0000.0,0013.84,0007.54,0006.75
2022-09-05 12:02:00,,0826.7,5.01,0.00,30.4,29.2,00.0,39.1,32.2,15.4,0000.0,0014.22,0007.54,0006.73
2022-09-05 12:03:00,,0826.8,5.01,0.00,30.4,29.3,00.0,39.1,32.2,15.4,0000.0,0014.37,0007.57,0006.73
2022-09-05 12:04:00,,0826.8,4.99,0.00,30.4,29.3,00.0,39.1,32.2,15.5,0000.0,0015.15,0007.64,0006.76
2022-09-05 12:05:00,,0826.8,5.01,0.00,30.4,29.3,00.0,39.2,32.3,15.9,0000.0,0015.15,0007.70,0006.81
2022-09-05 12:06:00,,0826.7,5.00,0.00,30.4,29.3,00.0,39.2,32.3,15.8,0000.0,0015.37,0007.72,0006.84
2022-09-05 12:07:00,,0826.7,5.00,0.00,30.5,29.4,00.0,39.2,32.3,16.0,0000.0,0015.77,0007.81,0006.90
2022-09-05 12:08:00,,0826.8,4.98,0.00,30.5,29.2,00.0,39.2,32.3,15.8,0000.0,0015.29,0007.89,0006.95
2022-09-05 12:09:00,,0826.8,5.00,0.00,30.5,27.8,00.0,39.2,32.2,15.8,0000.0,0015.10,0007.95,0006.99
2022-09-05 12:10:00,,0826.8,5.00,0.00,30.4,27.3,00.0,39.1,32.1,15.7,0000.0,0014.79,0007.98,0007.03
2022-09-05 12:11:00,,0826.8,5.01,0.00,30.3,27.3,00.0,39.1,32.0,15.8,0000.0,0014.34,0007.98,0007.07
2022-09-05 12:12:00,,0826.8,5.01,0.00,30.2,27.6,00.0,39.1,31.9,15.8,0000.0,0013.76,0008.00,0007.09
2022-09-05 12:13:00,,0826.8,4.99,0.00,30.2,27.9,00.0,39.0,31.9,15.7,0000.0,0013.46,0008.05,0007.10
2022-09-05 12:14:00,,0826.8,5.00,0.00,30.2,28.1,00.0,39.0,31.9,15.7,0000.0,0013.37,0008.06,0007.12
2022-09-05 12:15:00,,0826.8,5.00,0.00,30.2,28.3,00.0,39.0,31.9,15.8,0000.0,0013.34,0008.05,0007.12
2022-09-05 12:16:00,,0826.8,5.00,0.00,30.2,28.5,00.0,39.0,31.9,15.8,0000.0,0013.91,0008.10,0007.11
2022-09-05 12:17:00,,0826.8,5.00,0.00,30.2,28.6,00.0,39.0,32.0,16.2,0000.0,0014.14,0008.16,0007.10
2022-09-05 12:18:00,,0826.8,5.01,0.00,30.2,28.7,00.0,39.0,32.0,16.0,0000.0,0013.98,0008.11,0007.07
2022-09-05 12:19:00,,0826.8,4.98,0.00,30.2,28.8,00.0,39.0,32.0,16.0,0000.0,0014.11,0008.08,0007.05
2022-09-05 12:20:00,,0827.0,4.99,0.00,30.2,28.9,00.0,39.0,32.0,16.0,0000.0,0014.26,0008.08,0007.04
2022-09-05 12:21:00,,0827.2,5.00,0.00,30.2,29.0,00.0,39.0,32.0,15.9,0000.0,0014.35,0008.08,0007.03
2022-09-05 12:22:00,,0826.9,5.01,0.00,30.2,29.0,00.0,39.0,32.1,15.8,0000.0,0014.22,0008.10,0007.03
2022-09-05 12:23:00,,0827.1,5.01,0.00,30.3,29.0,00.0,39.0,32.1,15.9,0000.0,0014.45,0008.15,0007.05
2022-09-05 12:24:00,,0826.9,5.01,0.00,30.3,29.1,00.0,39.0,32.1,15.8,0000.0,0014.66,0008.16,0007.08
2022-09-05 12:25:00,,0826.9,4.99,0.00,30.3,29.1,00.0,39.1,32.1,15.6,0000.0,0015.28,0008.18,0007.08
2022-09-05 12:26:00,,0826.9,5.00,0.00,30.3,29.2,00.0,39.1,32.1,15.7,0000.0,0014.83,0008.19,0007.09
2022-09-05 12:27:00,,0826.9,5.01,0.00,30.3,29.2,00.0,39.1,32.2,15.8,0000.0,0014.35,0008.16,0007.09
2022-09-05 12:28:00,,0826.9,5.00,0.00,30.4,29.2,00.0,39.1,32.2,15.8,0000.0,0014.03,0008.11,0007.10
2022-09-05 12:29:00,,0826.9,5.00,0.00,30.4,29.3,00.0,39.1,32.2,15.7,0000.0,0013.85,0008.13,0007.11
2022-09-05 12:30:00,,0826.9,5.00,0.00,30.4,29.3,00.0,39.1,32.2,15.5,0000.0,0014.07,0008.12,0007.12
2022-09-05 12:31:00,,0827.0,4.99,0.00,30.4,29.3,00.0,39.2,32.3,15.5,0000.0,0014.89,0008.12,0007.12
2022-09-05 12:32:00,,0827.2,5.00,0.00,30.4,29.4,00.0,39.2,32.3,15.6,0000.0,0016.18,0008.15,0007.14
2022-09-05 12:33:00,,0827.2,4.98,0.00,30.5,29.4,00.0,39.2,32.3,15.5,0000.0,0016.37,0008.16,0007.16
2022-09-05 12:34:00,,0826.9,5.01,0.00,30.5,29.4,00.0,39.2,32.3,15.4,0000.0,0016.53,0008.17,0007.18
2022-09-05 12:35:00,,0827.0,5.00,0.00,30.5,29.3,00.0,39.2,32.3,15.3,0000.0,0016.78,0008.22,0007.19
2022-09-05 12:36:00,,0827.0,5.00,0.00,30.5,28.0,00.0,39.2,32.2,15.2,0000.0,0016.60,0008.27,0007.20
2022-09-05 12:37:00,,0827.1,4.99,0.00,30.4,27.2,00.0,39.2,32.2,15.3,0000.0,0016.87,0008.27,0007.23
2022-09-05 12:38:00,,0826.9,5.01,0.00,30.4,27.2,00.0,39.1,32.0,15.3,0000.0,0017.11,0008.25,0007.25
2022-09-05 12:39:00,,0827.0,5.01,0.00,30.3,27.5,00.0,39.1,31.9,15.5,0000.0,0017.13,0008.25,0007.26
2022-09-05 12:40:00,,0827.0,5.00,0.00,30.2,27.8,00.0,39.1,31.9,15.5,0000.0,0017.33,0008.27,0007.25
2022-09-05 12:41:00,,0827.0,4.99,0.00,30.2,28.1,00.0,39.1,31.9,15.5,0000.0,0017.91,0008.25,0007.24
2022-09-05 12:42:00,,0827.0,5.01,0.00,30.2,28.3,00.0,39.0,31.9,15.5,0000.0,0017.86,0008.23,0007.24
2022-09-05 12:43:00,,0827.0,5.00,0.00,30.2,28.5,00.0,39.0,32.0,15.7,0000.0,0016.80,0008.16,0007.22
2022-09-05 12:44:00,,0826.9,5.00,0.00,30.2,28.6,00.0,39.0,32.0,15.9,0000.0,0017.37,0008.17,0007.21
2022-09-05 12:45:00,,0827.1,5.00,0.00,30.2,28.7,00.0,39.0,32.0,16.0,0000.0,0017.21,0008.15,0007.20
2022-09-05 12:46:00,,0827.0,5.00,0.00,30.2,28.8,00.0,39.0,32.0,16.1,0000.0,0017.58,0008.07,0007.17
2022-09-05 12:47:00,,0827.3,4.98,0.00,30.2,28.9,00.0,39.0,32.0,16.2,0000.0,0018.01,0008.05,0007.15
2022-09-05 12:48:00,,0827.2,5.00,0.00,30.2,29.0,00.0,39.1,32.1,16.1,0000.0,0017.80,0008.05,0007.13
2022-09-05 12:49:00,,0827.0,5.00,0.00,30.3,29.0,00.0,39.1,32.1,16.6,0000.0,0017.56,0008.04,0007.09
2022-09-05 12:50:00,,0827.1,5.01,0.00,30.3,29.1,00.0,39.1,32.1,16.7,0000.0,0017.62,0008.08,0007.08
2022-09-05 12:51:00,,0827.1,5.01,0.00,30.3,29.1,00.0,39.1,32.1,16.9,0000.0,0017.79,0008.10,0007.07
2022-09-05 12:52:00,,0827.1,4.98,0.00,30.3,29.2,00.0,39.1,32.2,16.8,0000.0,0016.84,0008.18,0007.09
2022-09-05 12:53:00,,0827.1,5.00,0.00,30.3,29.2,00.0,39.1,32.2,16.7,0000.0,0016.25,0008.21,0007.11
2022-09-05 12:54:00,,0827.2,5.00,0.00,30.4,29.3,00.0,39.1,32.2,16.5,0000.0,0016.88,0008.28,0007.12
2022-09-05 12:55:00,,0827.2,5.00,0.00,30.4,29.3,00.0,39.1,32.2,16.3,0000.0,0016.62,0008.28,0007.13
2022-09-05 12:56:00,,0827.2,5.00,0.00,30.4,29.3,00.0,39.2,32.3,16.3,0000.0,0016.71,0008.30,0007.15
2022-09-05 12:57:00,,0827.2,5.00,0.00,30.4,29.4,00.0,39.2,32.3,16.1,0000.0,0015.94,0008.31,0007.17
2022-09-05 12:58:00,,0827.2,5.01,0.00,30.5,29.2,00.0,39.2,32.3,16.1,0000.0,0015.33,0008.33,0007.18
2022-09-05 12:59:00,,0827.2,4.99,0.00,30.5,27.9,00.0,39.2,32.2,16.1,0000.0,0015.59,0008.34,0007.20
